TimeEDT,TemperatureF,Dew PointF,Humidity,Sea Level PressureIn,VisibilityMPH,Wind Direction,Wind SpeedMPH,Gust SpeedMPH,PrecipitationIn,Events,Conditions,WindDirDegrees,DateUTC
12:53 AM,45.0,42.1,90,30.16,10.0,Calm,Calm,-,N/A,,Scattered Clouds,0,2012-10-22 04:53:00
1:53 AM,43.0,41.0,93,30.16,8.0,Calm,Calm,-,N/A,,Clear,0,2012-10-22 05:53:00
2:53 AM,42.1,39.9,92,30.17,7.0,Calm,Calm,-,N/A,,Clear,0,2012-10-22 06:53:00
3:53 AM,42.1,41.0,96,30.17,6.0,Calm,Calm,-,N/A,,Clear,0,2012-10-22 07:53:00
4:53 AM,39.9,39.0,97,30.18,4.0,Calm,Calm,-,N/A,,Scattered Clouds,0,2012-10-22 08:53:00
5:53 AM,39.9,39.0,97,30.19,2.5,Calm,Calm,-,N/A,,Scattered Clouds,0,2012-10-22 09:53:00
6:04 AM,39.2,39.2,100,30.22,5.0,Calm,Calm,-,N/A,,Scattered Clouds,0,2012-10-22 10:04:00
6:53 AM,41.0,39.9,96,30.21,6.0,NNE,3.5,-,N/A,,Partly Cloudy,30,2012-10-22 10:53:00
7:53 AM,39.9,39.0,97,30.23,10.0,Calm,Calm,-,N/A,,Partly Cloudy,0,2012-10-22 11:53:00
8:53 AM,46.0,43.0,89,30.25,10.0,NNE,3.5,-,N/A,,Clear,30,2012-10-22 12:53:00
9:53 AM,51.1,45.0,80,30.25,10.0,Calm,Calm,-,N/A,,Clear,0,2012-10-22 13:53:00
10:53 AM,57.0,46.9,69,30.24,10.0,Calm,Calm,-,N/A,,Clear,0,2012-10-22 14:53:00
11:53 AM,63.0,46.9,56,30.23,10.0,Calm,Calm,-,N/A,,Clear,0,2012-10-22 15:53:00
12:53 PM,70.0,46.0,42,30.20,10.0,Calm,Calm,-,N/A,,Clear,0,2012-10-22 16:53:00
1:53 PM,72.0,45.0,38,30.17,10.0,Calm,Calm,-,N/A,,Clear,0,2012-10-22 17:53:00
2:53 PM,75.0,46.0,36,30.14,10.0,WNW,5.8,-,N/A,,Clear,290,2012-10-22 18:53:00
3:53 PM,75.0,45.0,34,30.12,10.0,Calm,Calm,-,N/A,,Clear,0,2012-10-22 19:53:00
4:53 PM,75.9,48.0,37,30.12,10.0,Calm,Calm,-,N/A,,Clear,0,2012-10-22 20:53:00
5:53 PM,75.0,48.0,38,30.12,10.0,Calm,Calm,-,N/A,,Partly Cloudy,0,2012-10-22 21:53:00
6:53 PM,64.0,48.0,56,30.14,10.0,NNW,3.5,-,N/A,,Partly Cloudy,340,2012-10-22 22:53:00
7:53 PM,59.0,48.9,69,30.16,10.0,Calm,Calm,-,N/A,,Partly Cloudy,0,2012-10-22 23:53:00
8:53 PM,55.9,48.9,77,30.16,10.0,Calm,Calm,-,N/A,,Clear,0,2012-10-23 00:53:00
9:53 PM,53.1,48.0,83,30.17,10.0,North,3.5,-,N/A,,Clear,360,2012-10-23 01:53:00
10:53 PM,52.0,48.0,86,30.16,10.0,Calm,Calm,-,N/A,,Clear,0,2012-10-23 02:53:00
11:53 PM,50.0,46.9,89,30.14,10.0,Calm,Calm,-,N/A,,Clear,0,2012-10-23 03:53:00